Powrót do katalogu

LEMUR 2 ROUNDTRIPPER

AktywnyNaukaSSO
NORAD 62711·PAYLOAD·🇺🇸 United States

Wystrzelony Jan 14, 2025 z Vandenberg Space Force Base

Loading…

Następne Przeloty (najbliższe 24 godziny)

TLE

ŚwieżeSource: Space-Track

Epoka: Sep 14, 2026, 11:39 UTC

1 62711U 25009DG  26257.48573392  .00006816  00000-0  48416-3 0  9993
2 62711  97.7203 340.0912 0003718 170.3824 189.7474 15.05027440 91053

Śledź LEMUR 2 ROUNDTRIPPER w czasie rzeczywistym z AllMySat

Download on the App Store